Temperature
13 13 13 13 14 14 14 14 14 14 14 14 14 14 14 14 15 14 14 15 15 15 14 15 14 14 14 14 14 14 14 15 15 15 15 14 14 14 14 14 14 14 14
13 13 13 13 14 14 14 14 14 14 14 14 14 14 14 14 14 14 14 14 14 14 14 14 14 14 14 14 14 14 14 14 14 14 14 14 14 14 14 14 14 14 14
13 13 13 13 13 14 14 14 14 14 14 14 14 14 14 14 14 14 14 14 14 14 14 14 14 14 14 14 14 14 14 14 14 14 14 14 14 14 14 14 14 14 14
13 13 13 13 13 13 13 13 13 14 13 14 14 14 14 14 14 14 14 14 14 14 14 14 14 14 14 14 14 14 14 14 14 14 14 14 14 14 14 14 14 14 14
13 13 13 13 13 13 13 13 13 13 13 13 13 14 13 14 14 13 14 14 14 13 14 13 13 13 13 13 13 13 13 14 14 14 14 14 14 13 13 14 14 14 14
13 13 13 13 13 13 13 13 13 13 13 13 13 13 13 13 13 13 13 13 13 13 13 13 13 13 13 13 13 13 13 13 13 13 13 13 13 13 13 13 13 13 13
12 12 12 12 12 12 12 13 13 13 13 13 13 13 13 13 13 13 13 13 13 13 13 13 13 13 13 13 13 13 13 13 13 13 13 13 13 13 13 13 13 13 13
12 12 12 12 12 12 12 12 12 12 12 12 13 13 13 13 13 13 13 13 13 13 13 13 13 13 12 12 12 12 12 13 13 13 13 13 12 12 12 12 12 13 13
12 12 12 12 12 12 12 12 12 12 12 12 12 13 13 13 13 12 12 12 12 12 13 13 12 12 12 12 12 12 12 12 12 12 12 12 12 12 12 12 12 12 12
11 11 11 11 11 11 12 12 12 12 12 12 12 12 12 12 12 12 12 12 12 12 12 12 12 12 12 12 12 12 12 12 12 12 12 12 12 12 12 11 11 11 12
11 11 11 11 11 11 11 11 11 11 12 12 12 12 12 12 12 12 12 12 12 12 12 12 12 11 11 12 12 12 12 12 12 11 11 11 11 11 11 11 11 11 11
10 10 10 11 11 11 11 11 11 11 11 11 11 11 11 11 11 11 11 11 11 11 11 11 11 11 11 11 11 11 11 11 11 11 11 11 11 11 11 11 11 11 11
10 10 10 10 10 10 11 11 11 11 11 11 11 11 11 11 11 11 11 11 11 11 11 11 11 11 11 11 11 11 11 11 11 10 10 10 10 10 10 11 11 10 10
10 10 10 10 10 10 10 10 10 10 10 11 11 10 11 10 10 10 10 10 10 10 10 10 10 10 10 10 10 10 10 10 10 10 10 10 10 10 10 10 10 10 10
9 9 9 9 10 10 10 10 10 10 10 10 10 10 10 10 10 10 10 10 10 10 10 10 10 10 10 10 10 10 10 10 10 10 10 10 10 10 10 10 10 9 9
9 9 9 9 9 9 9 10 10 10 9 10 10 10 10 10 10 10 10 9 10 10 10 10 10 10 10 10 9 9 9 9 9 9 9 9 9 9 9 9 9 9 9
8 8 8 8 8 9 9 9 9 9 9 9 9 9 9 9 9 9 9 9 9 9 9 9 9 9 9 9 9 9 9 9 9 9 9 9 9 9 9 9 9 9 9
8 8 8 8 8 8 8 8 8 8 8 8 9 9 9 9 9 9 9 9 9 9 9 9 9 9 9 9 9 9 9 8 9 9 9 8 8 8 9 9 9 9 9
7 7 7 7 7 7 7 7 7 8 8 8 8 8 8 8 8 8 8 8 8 8 8 8 8 8 8 8 8 8 8 8 8 8 8 8 8 8 8 8 8 8 8
7 6 6 6 6 6 6 6 7 7 7 7 7 7 7 7 7 7 8 8 8 8 8 8 8 8 8 8 8 8 7 7 7 7 7 7 7 7 7 8 8 8 8
6 6 6 6 6 6 6 6 6 6 6 6 6 6 6 6 6 7 7 7 7 7 7 7 7 7 7 7 7 7 7 7 6 7 7 7 7 7 7 7 7 7 7
6 5 5 5 5 5 5 5 6 6 5 5 6 6 6 6 6 6 6 6 6 7 7 7 7 7 7 6 6 6 6 6 6 6 6 6 6 6 6 7 7 7 7
5 5 5 5 5 5 5 5 5 5 5 5 5 5 5 5 5 5 5 5 6 6 6 6 6 6 6 6 6 6 5 5 5 5 5 5 6 6 6 6 6 6 6
4 5 4 4 4 4 4 4 4 5 5 5 5 5 5 4 5 5 5 5 5 5 5 5 5 5 5 5 5 5 5 5 4 4 5 5 5 5 5 6 6 6 6
4 4 4 4 4 4 4 4 4 4 4 4 4 4 4 4 4 4 4 4 4 4 4 4 4 5 5 5 4 4 4 4 4 4 4 5 5 5 5 5 5 5 5
3 3 3 3 3 3 3 3 3 3 3 4 4 4 4 4 4 4 4 4 4 4 4 4 4 4 4 4 4 4 4 4 3 3 3 4 4 4 4 4 4 4 5
Wind_Speed
4 5 7 9 11 12 12 13 13 13 13 14 14 14 15 15 15 15 15 16 16 16 16 16 17 17 17 17 17 18 18 18 18 18 17 17 16 17 17 17 16 15 17
6 7 8 10 13 13 13 13 13 13 13 13 13 14 14 14 14 14 15 15 15 16 16 16 16 16 16 17 17 17 17 17 17 17 16 15 16 16 16 16 15 14 16
7 7 9 12 13 14 14 14 14 13 13 13 13 13 13 14 14 14 14 14 15 15 15 15 15 15 15 16 16 16 17 17 16 16 15 14 14 15 16 15 16 16 16
8 9 10 13 13 14 14 14 14 13 13 13 13 13 13 13 14 14 14 14 14 15 15 15 15 15 15 15 15 15 16 16 16 15 13 13 12 14 15 15 15 15 16
8 9 10 13 13 14 14 14 13 13 13 13 12 13 13 13 14 14 14 14 14 14 14 14 14 14 14 14 14 15 15 15 15 14 13 12 12 13 14 14 14 15 15
8 9 11 13 13 14 14 13 13 13 13 12 12 13 13 13 14 14 13 14 14 14 14 13 14 14 14 14 14 15 15 15 14 13 13 12 12 13 14 14 14 14 14
7 8 10 13 13 13 13 13 13 13 12 12 12 12 13 13 13 13 13 13 13 13 13 13 13 13 14 14 14 14 15 15 14 13 12 11 11 13 13 13 13 14 14
8 8 9 11 12 12 12 13 13 12 12 12 12 12 12 12 13 13 13 13 13 13 13 13 13 13 13 13 13 14 15 14 13 12 11 11 12 13 13 13 13 13 13
8 8 8 9 10 11 11 12 12 12 11 11 11 11 12 12 12 12 12 13 12 12 12 12 12 13 13 13 13 13 14 14 13 11 10 10 11 12 12 12 12 12 13
7 7 7 8 8 9 9 10 11 11 11 11 11 11 11 12 11 11 11 12 12 11 12 12 12 12 13 13 13 14 14 13 12 11 9 10 11 12 12 11 12 12 12
5 4 5 6 7 8 8 9 10 10 10 10 10 11 10 10 10 10 11 11 11 11 11 11 12 12 12 12 13 13 12 11 11 9 8 9 11 11 11 11 11 11 11
5 4 4 5 6 6 7 8 8 9 9 9 9 9 9 9 8 8 10 10 10 10 10 11 11 11 11 11 11 11 10 11 10 8 8 9 10 10 10 10 10 10 10
6 5 3 4 5 6 5 6 6 7 8 8 9 9 9 9 8 8 8 9 9 9 9 9 10 9 9 9 9 9 10 9 9 8 8 8 8 9 9 9 9 9 9
5 5 4 5 5 6 6 6 6 6 6 7 7 8 8 7 7 6 6 7 7 7 7 8 7 8 9 9 9 8 9 8 8 7 7 7 7 8 7 7 8 8 8
5 5 4 5 5 6 6 6 6 6 6 7 7 7 8 6 5 5 5 6 6 6 6 6 6 7 7 7 8 8 7 8 8 7 6 6 6 6 6 6 7 7 7
5 5 5 5 6 6 6 5 6 6 7 7 7 7 8 7 6 5 5 5 5 6 6 6 6 5 5 6 6 6 6 7 7 7 7 7 7 7 6 6 6 5 6
5 5 5 5 6 6 6 6 6 7 7 7 6 7 8 7 6 6 4 4 4 5 6 6 6 7 5 5 5 5 5 6 6 7 7 7 6 7 6 6 6 6 5
5 6 6 5 5 6 6 6 6 7 8 7 7 7 7 7 7 6 5 4 5 5 5 4 4 4 4 3 3 3 4 5 6 6 7 7 6 6 6 6 5 4 5
6 6 6 5 5 5 6 7 7 7 7 6 7 7 7 7 7 6 5 5 6 6 5 4 3 3 3 3 2 3 3 4 4 6 7 7 7 6 6 6 5 4 4
6 6 6 6 5 5 5 5 5 5 5 6 6 6 6 6 7 7 6 6 6 5 4 4 3 3 3 2 3 3 3 3 4 5 5 5 6 6 5 6 6 5 6
6 6 6 6 5 5 4 4 4 3 3 3 5 6 6 6 6 6 5 5 5 4 3 4 3 4 3 2 2 2 3 3 3 3 4 4 5 4 5 5 5 5 5
7 6 6 6 6 5 4 3 2 3 2 3 4 5 6 6 5 5 5 4 4 4 4 4 4 2 2 2 2 2 1 2 2 3 3 3 4 4 4 4 4 4 4
6 7 6 6 6 5 4 4 4 3 3 2 2 2 4 5 5 5 5 5 4 3 3 3 3 3 2 1 2 2 2 1 2 2 2 2 2 3 3 4 4 3 3
6 5 5 5 5 4 5 5 6 4 3 2 2 2 3 4 5 4 4 4 4 3 3 2 3 2 2 1 1 2 1 1 1 1 2 2 3 2 2 3 3 3 2
5 5 5 5 5 4 5 5 6 4 3 2 3 3 2 3 4 4 4 4 3 3 3 2 2 2 2 1 1 0 1 1 0 1 2 3 4 3 3 3 3 3 2
4 5 4 5 4 4 5 5 5 5 4 4 3 3 2 1 2 2 3 3 3 2 2 2 2 2 1 1 1 0 0 0 0 0 1 3 4 4 4 3 3 2 2
Wind_Direction
179 174 150 135 127 119 112 107 103 100 96 92 89 88 89 88 87 86 84 82 80 77 76 75 75 75 75 74 73 72 71 71 69 67 67 69 70 72 71 70 69 69 74
162 157 147 137 130 122 117 110 105 102 97 94 92 91 90 90 88 86 84 83 81 80 79 78 76 76 75 75 74 72 72 70 68 64 62 65 69 72 72 71 70 73 75
138 140 140 132 128 124 120 114 109 104 99 96 94 93 92 91 89 89 86 83 82 80 81 80 78 76 74 74 73 72 72 69 67 62 59 61 68 72 73 72 70 72 74
130 129 133 129 126 125 121 116 112 106 102 98 96 95 95 94 91 89 87 85 83 82 81 80 79 76 74 73 74 74 73 68 65 62 57 58 65 72 73 73 72 71 72
120 125 130 128 126 125 122 118 114 109 105 101 99 98 97 96 93 91 88 86 86 84 82 81 79 77 73 72 74 75 71 67 67 62 59 58 63 71 73 74 74 74 74
119 121 128 127 124 123 122 119 115 111 108 105 102 99 97 96 95 92 89 87 87 86 85 82 79 75 72 73 74 73 70 69 66 64 60 59 65 74 75 75 76 76 75
117 117 126 127 123 121 120 119 116 113 110 108 105 101 99 97 95 93 89 87 87 87 86 83 79 76 74 75 74 72 70 70 69 66 60 61 68 75 75 75 76 76 75
112 108 116 122 120 121 121 118 116 114 112 108 106 103 101 98 95 94 92 90 87 86 86 85 80 78 77 75 73 72 70 72 73 69 64 67 72 73 74 73 75 77 76
104 100 98 110 116 117 116 118 119 117 115 109 105 104 103 100 96 94 93 91 88 86 85 83 81 78 77 76 73 71 69 71 71 70 67 69 73 73 73 73 74 77 77
100 98 100 99 105 109 114 115 115 113 112 107 103 101 99 97 97 95 92 91 89 86 85 83 81 79 76 74 71 70 69 71 69 67 66 70 73 74 74 73 73 76 77
105 96 102 103 101 106 110 112 110 110 107 103 99 99 94 88 88 90 91 91 87 84 83 82 80 79 76 72 71 70 67 67 69 67 71 74 74 75 74 73 74 74 75
138 122 102 105 110 108 109 106 103 103 103 99 97 95 89 87 85 89 92 91 86 81 80 78 79 78 73 69 67 67 66 63 65 66 74 77 76 77 77 75 76 76 76
150 135 122 115 117 112 106 106 102 102 100 99 99 95 94 89 83 80 80 79 78 75 70 70 71 69 69 69 67 66 63 61 60 63 70 76 76 77 77 76 77 77 78
143 143 135 124 119 115 112 106 104 100 93 93 96 99 98 90 82 79 76 77 74 70 69 66 67 67 69 71 72 68 62 60 57 60 66 74 75 75 76 78 79 78 79
150 149 146 132 127 123 114 112 107 101 97 97 93 97 103 97 88 83 79 78 74 71 71 70 68 69 68 69 70 68 62 59 60 57 57 65 74 73 75 79 83 83 80
164 159 150 138 133 126 123 117 113 108 106 98 90 89 98 99 94 90 80 73 69 70 74 77 76 72 70 74 67 64 64 63 62 59 57 57 62 67 69 73 76 78 80
166 155 150 143 130 130 127 120 114 111 105 94 89 91 90 92 94 90 84 73 67 74 77 77 74 75 71 65 59 56 62 63 64 61 60 59 56 54 57 66 70 65 70
155 151 148 141 130 128 123 119 116 111 103 95 95 91 88 88 90 90 82 71 68 75 75 78 76 82 70 65 57 46 49 59 63 68 66 58 54 46 44 51 58 59 58
157 151 145 134 133 129 122 116 111 106 101 97 96 89 85 86 87 85 80 74 80 74 64 74 75 84 83 65 59 53 45 49 56 67 62 58 55 51 47 40 37 42 36
151 149 147 139 131 125 116 106 102 95 91 93 90 87 89 85 88 84 75 73 82 77 71 73 82 70 80 77 69 48 34 42 57 59 54 56 51 48 45 40 37 31 21
145 149 151 144 140 134 136 140 137 138 122 100 91 89 89 85 86 85 80 75 76 82 82 89 90 79 53 57 67 39 18 28 44 42 42 51 37 34 40 37 38 36 20
157 158 154 151 150 151 153 144 140 131 116 108 92 87 86 85 85 86 85 85 80 86 80 81 86 86 61 40 82 94 33 359 1 4 13 27 26 25 26 21 27 27 21
165 168 165 161 155 151 132 119 115 98 84 81 83 88 76 85 82 79 82 86 83 95 101 93 89 92 108 22 44 99 124 215 298 319 329 345 359 4 6 12 11 4 2
176 167 158 158 154 150 142 146 144 144 140 154 144 119 88 84 81 76 81 86 88 87 104 108 86 87 116 111 12 30 69 159 180 289 304 317 323 326 328 342 337 337 335
163 159 157 153 155 153 151 152 155 143 131 118 120 117 106 83 78 74 75 76 82 79 94 100 87 86 103 133 123 17 42 26 70 199 273 302 317 302 306 303 300 312 311
148 150 150 149 154 157 154 155 158 152 142 134 140 147 141 112 79 64 66 68 72 74 94 104 107 110 113 125 99 83 143 190 264 259 264 296 298 295 303 287 276 288 304
Height
1531 1533 1535 1536 1538 1539 1540 1541 1541 1542 1542 1543 1543 1543 1543 1543 1543 1543 1543 1543 1543 1544 1544 1544 1544 1544 1544 1544 1544 1544 1544 1543 1543 1543 1543 1543 1543 1543 1543 1543 1543 1543 1543
1530 1532 1534 1536 1537 1538 1540 1541 1542 1542 1543 1543 1543 1544 1544 1544 1544 1544 1544 1544 1544 1544 1544 1545 1545 1545 1545 1545 1545 1545 1545 1545 1545 1545 1545 1545 1545 1545 1545 1545 1545 1545 1545
1529 1532 1534 1536 1537 1538 1539 1541 1542 1542 1543 1543 1544 1544 1544 1544 1545 1545 1545 1545 1545 1545 1545 1546 1546 1546 1546 1546 1546 1546 1546 1546 1546 1546 1546 1546 1546 1547 1547 1547 1547 1547 1547
1529 1531 1533 1535 1537 1538 1539 1540 1542 1542 1543 1543 1544 1544 1545 1545 1545 1545 1546 1546 1546 1546 1546 1546 1547 1547 1547 1547 1547 1547 1547 1547 1548 1548 1548 1548 1548 1548 1548 1548 1548 1548 1548
1528 1531 1533 1535 1536 1538 1539 1540 1541 1542 1543 1544 1544 1544 1545 1545 1546 1546 1546 1546 1546 1547 1547 1547 1547 1547 1548 1548 1548 1548 1548 1549 1549 1549 1549 1549 1549 1549 1549 1549 1550 1550 1549
1528 1530 1532 1534 1536 1537 1539 1540 1541 1542 1543 1544 1544 1544 1545 1545 1546 1546 1546 1547 1547 1547 1548 1548 1548 1548 1548 1549 1549 1549 1549 1549 1550 1550 1550 1550 1550 1551 1551 1551 1551 1551 1551
1527 1530 1532 1534 1535 1537 1538 1539 1540 1541 1542 1543 1544 1545 1545 1545 1546 1546 1547 1547 1547 1547 1548 1548 1548 1549 1549 1549 1550 1550 1550 1550 1550 1551 1551 1551 1551 1552 1552 1552 1552 1552 1552
1527 1529 1531 1533 1534 1536 1537 1538 1540 1541 1542 1543 1544 1544 1545 1545 1546 1546 1547 1547 1547 1548 1548 1548 1549 1549 1549 1550 1550 1551 1551 1551 1551 1551 1552 1552 1552 1552 1552 1552 1552 1552 1553
1526 1528 1530 1532 1534 1535 1536 1538 1539 1540 1542 1543 1543 1544 1545 1545 1546 1547 1547 1547 1548 1548 1548 1548 1549 1549 1550 1550 1551 1551 1551 1551 1552 1552 1552 1553 1553 1553 1553 1553 1553 1553 1553
1525 1527 1529 1531 1533 1534 1535 1537 1538 1540 1541 1542 1543 1544 1544 1545 1546 1546 1547 1547 1548 1548 1548 1548 1549 1549 1550 1550 1551 1551 1551 1552 1552 1552 1553 1553 1553 1553 1553 1553 1553 1554 1554
1524 1525 1527 1529 1531 1533 1534 1536 1537 1539 1540 1541 1542 1543 1544 1545 1545 1546 1546 1547 1547 1548 1548 1548 1549 1549 1550 1550 1551 1551 1551 1552 1552 1552 1553 1553 1553 1553 1553 1553 1554 1554 1554
1521 1523 1525 1527 1529 1531 1533 1534 1536 1538 1539 1540 1541 1542 1543 1544 1544 1545 1546 1546 1547 1547 1548 1548 1548 1549 1549 1550 1550 1551 1551 1551 1552 1552 1552 1553 1553 1553 1553 1553 1554 1554 1554
1519 1521 1523 1525 1528 1530 1531 1533 1534 1536 1538 1539 1540 1541 1542 1543 1543 1544 1545 1545 1546 1547 1547 1548 1548 1549 1549 1550 1550 1550 1551 1551 1551 1552 1552 1553 1553 1553 1553 1553 1553 1554 1554
1517 1519 1521 1524 1525 1528 1529 1531 1532 1534 1536 1537 1539 1540 1541 1542 1542 1543 1544 1545 1545 1546 1547 1547 1548 1548 1549 1549 1550 1550 1550 1551 1551 1551 1552 1552 1553 1553 1553 1553 1553 1553 1554
1515 1517 1519 1522 1523 1525 1527 1529 1531 1533 1534 1536 1537 1539 1540 1541 1541 1542 1543 1544 1545 1545 1546 1547 1547 1548 1548 1549 1549 1550 1550 1550 1551 1551 1551 1552 1552 1552 1553 1553 1553 1553 1553
1513 1515 1517 1519 1521 1523 1525 1527 1529 1531 1533 1534 1536 1537 1538 1539 1540 1541 1542 1543 1544 1545 1545 1546 1546 1547 1547 1548 1548 1549 1549 1550 1550 1550 1551 1551 1552 1552 1552 1552 1552 1552 1552
1511 1513 1515 1517 1519 1521 1523 1524 1527 1529 1531 1532 1534 1535 1536 1538 1539 1540 1541 1542 1543 1544 1544 1545 1546 1546 1547 1547 1548 1548 1549 1549 1549 1549 1550 1550 1551 1551 1551 1551 1551 1551 1551
1508 1510 1512 1515 1517 1518 1520 1522 1524 1527 1528 1530 1532 1533 1534 1536 1537 1539 1540 1541 1542 1543 1543 1544 1545 1545 1546 1546 1547 1547 1547 1548 1548 1548 1549 1549 1549 1550 1550 1550 1550 1550 1550
1506 1508 1510 1512 1514 1516 1518 1520 1522 1524 1526 1528 1529 1531 1532 1534 1535 1537 1538 1539 1541 1541 1542 1543 1543 1544 1544 1545 1545 1546 1546 1547 1547 1547 1548 1548 1548 1548 1548 1548 1548 1548 1548
1503 1506 1508 1510 1512 1514 1516 1518 1520 1522 1524 1525 1527 1529 1530 1532 1533 1535 1536 1537 1539 1540 1541 1541 1542 1542 1543 1543 1543 1544 1545 1545 1546 1546 1546 1546 1546 1546 1546 1546 1546 1546 1546
1500 1503 1505 1507 1509 1511 1513 1515 1517 1519 1521 1523 1525 1527 1528 1530 1531 1532 1534 1535 1537 1538 1539 1539 1540 1541 1541 1542 1542 1542 1543 1544 1544 1544 1544 1545 1544 1544 1544 1544 1544 1544 1544
1497 1499 1502 1504 1507 1509 1511 1513 1516 1517 1519 1521 1523 1525 1526 1528 1529 1530 1532 1533 1534 1535 1536 1537 1538 1538 1539 1540 1540 1540 1541 1543 1542 1542 1542 1542 1542 1542 1542 1542 1542 1542 1542
1494 1496 1499 1501 1504 1507 1509 1511 1513 1515 1517 1520 1521 1522 1524 1526 1527 1529 1530 1531 1532 1533 1533 1534 1535 1536 1537 1538 1539 1539 1539 1539 1540 1540 1540 1540 1540 1540 1539 1539 1539 1539 1539
1491 1494 1497 1499 1502 1504 1507 1509 1510 1512 1514 1516 1518 1520 1522 1524 1525 1527 1528 1529 1530 1531 1531 1532 1533 1534 1535 1535 1536 1537 1538 1538 1538 1536 1537 1537 1537 1537 1537 1536 1536 1536 1536
1490 1492 1495 1497 1500 1502 1504 1506 1509 1510 1513 1515 1517 1519 1520 1522 1523 1525 1526 1527 1528 1529 1529 1530 1531 1532 1532 1533 1533 1534 1535 1535 1535 1535 1533 1533 1533 1533 1533 1533 1533 1533 1533
1488 1490 1492 1495 1497 1500 1502 1504 1506 1508 1510 1513 1514 1516 1518 1519 1521 1522 1523 1525 1525 1526 1527 1527 1528 1529 1530 1531 1531 1531 1532 1532 1532 1532 1531 1530 1529 1529 1529 1530 1529 1529 1529